World > North America > United States > California   City of Oakland, CA

Oakland, California Regional Weather

Lat: 37.77N, Lon: 122.22W
Wx Zone: CAZ508Web Search

Helpful Tip: Type the letters wx in the search engine next time you need to find us.

Feedback
Oakland Weather Map
UTC Time: 11/26/2020, 09:47
Your Time:

Oakland, CA Regional Weather

Expires:202011261000;;419072
ASUS46 KSTO 260915
RWRCA 

NORTHERN AND CENTRAL CA REGIONAL WEATHER ROUNDUP
NATIONAL WEATHER SERVICE SACRAMENTO CA 
100 AM PST THU NOV 26 2020

NOTE: FAIR INDICATES FEW OR NO CLOUDS BELOW 12,000 FEET WITH NO
SIGNIFICANT WEATHER AND/OR OBSTRUCTIONS TO VISIBILITY.


CAZ006-505>513-261000-
BAY AREA
  
CITY           SKY/WX    TMP DP  RH WIND       PRES   REMARKS
SANTA ROSA     CLEAR     45  37  73 N9        30.24F                  
SAN RAFAEL     N/A       MM  MM  MM MISG
NAPA           CLEAR     39  33  79 SE6       30.21F WCI  35          
CONCORD        CLEAR     42  37  82 CALM      30.21F                  
OAKLAND CITY   N/A       50  MM  MM MISG
OAKLAND        CLEAR     51  39  63 NW7       30.22F                  
SAN FRAN CITY  N/A       49  MM  66 MISG
SAN FRAN ARPT  CLEAR     47  40  76 W6        30.21F                  
LIVERMORE      CLEAR     36  33  89 E3        30.20F                  
HAYWARD        CLEAR     46  36  68 CALM      30.21F                  
SAN JOSE ARPT  CLEAR     43  39  86 CALM      30.21F                  
$$

SKY/WX - Weather  TMP - Temperature  DP - Dew Point  RH - Relative Humidity
WIND - Wind Direction/Speed PRES - Barometric Pressure VSB - Visibility
WCI - Wind Chill Index E13G22 Wind - East Wind 13 mph/Gusts of 22 mph